Weather History for KVTN - March, 2013

Change the Weather History Date:

Monday, March 25, 2013

  Actual Average Record
Temperature  
Mean Temperature 23 °F 39 °F  
Max Temperature 31 °F 52 °F 85 °F (1993)
Min Temperature 14 °F 26 °F -11 °F (1965)
Degree Days  
Heating Degree Days 42 26  
Month to date heating degree days 822 743  
Since 1 July heating degree days 5775 5979  
Cooling Degree Days 0 0  
Month to date cooling degree days 0 0  
Year to date cooling degree days 0 0  
Moisture  
Dew Point 12 °F    
Average Humidity 64    
Maximum Humidity 84    
Minimum Humidity 43    
Precipitation  
Precipitation 0.02 in 0.05 in 0.72 in (1928)
Month to date precipitation 1.46 0.80  
Year to date precipitation 2.69 1.54  
Snow  
Snow 0.50 in 0.20 in 5.30 in (1942)
Month to date snowfall 10.2 5.4  
Since 1 July snowfall 37.8 27.5  
Snow Depth 1.00 in    
Sea Level Pressure  
Sea Level Pressure 30.35 in    
Wind  
Wind Speed 10 mph (NNW)    
Max Wind Speed 21 mph    
Max Gust Speed 26 mph    
Visibility 7 miles    
Events Snow    
T = Trace of Precipitation, MM = Missing Value Source: NWS Daily Summary

Daily Weather History Graph

Daily Weather History Graph

Search for Another Location

Airport or City:

Trip Planner

Search our weather history database for the weather conditions in past years. The results will help you decide how hot, cold, wet, or windy it might be!

Date:

Astronomy

Mar. 25, 2013 Rise Set
Actual Time 7:36 AM CDT 8:00 PM CDT
Civil Twilight 7:07 AM CDT 8:29 PM CDT
Nautical Twilight 6:34 AM CDT 9:02 PM CDT
Astronomical Twilight 6:00 AM CDT 9:36 PM CDT
Moon 6:33 PM CDT (3/25) 6:22 AM CDT (3/25)
Length of Visible Light 13h 21m
Length of Day
12h 24m
Waxing Gibbous, 96% of the Moon is Illuminated
Mar 25
Waxing Gibbous
Mar 27
Full
Apr 2
Last Quarter
Apr 10
New
Apr 18
First Quarter

Hourly Weather History & Observations

Time (CDT) Temp. Windchill Dew Point Humidity Pressure Visibility Wind Dir Wind Speed Gust Speed Precip Events Conditions
12:52 AM 19.9 °F 5.7 °F 16.0 °F 85% 30.34 in 3.0 mi NNW 16.1 mph 21.9 mph 0.00 in Snow Light Snow
1:02 AM 19.4 °F 6.6 °F 15.8 °F 86% 30.23 in 3.0 mi NNW 12.7 mph 21.9 mph 0.00 in Snow Light Snow
1:05 AM 19.4 °F 5.5 °F 15.8 °F 86% 30.23 in 1.8 mi NNW 15.0 mph 21.9 mph 0.00 in Snow Light Snow
1:40 AM 19.4 °F 5.0 °F 15.8 °F 86% 30.23 in 3.0 mi NNW 16.1 mph 21.9 mph 0.00 in Snow Light Snow
1:50 AM 19.4 °F 4.5 °F 15.8 °F 86% 30.23 in 9.0 mi NNW 17.3 mph 26.5 mph 0.00 in   Overcast
1:52 AM 19.9 °F 6.2 °F 15.1 °F 81% 30.35 in 9.0 mi NNW 15.0 mph 26.5 mph 0.00 in   Overcast
2:40 AM 19.4 °F 4.5 °F 12.2 °F 74% 30.24 in 10.0 mi NNW 17.3 mph 26.5 mph N/A   Overcast
2:52 AM 19.0 °F 6.1 °F 12.9 °F 77% 30.36 in 10.0 mi NNW 12.7 mph - N/A   Overcast
3:52 AM 18.0 °F 6.1 °F 12.0 °F 78% 30.36 in - NNW 10.4 mph - 0.00 in   Overcast
4:52 AM 17.1 °F 4.3 °F 12.0 °F 81% 30.37 in - NW 11.5 mph - 0.00 in   Overcast
5:15 AM 15.8 °F 2.1 °F 10.4 °F 79% 30.25 in - NNW 12.7 mph - 0.00 in   Overcast
5:33 AM 15.8 °F 2.7 °F 8.6 °F 73% 30.26 in - NNW 11.5 mph - 0.00 in   Overcast
5:48 AM 15.8 °F 4.2 °F 10.4 °F 79% 30.26 in 4.0 mi NNW 9.2 mph - 0.00 in Snow Light Snow
5:52 AM 16.0 °F 5.3 °F 10.9 °F 81% 30.38 in 3.0 mi NNW 8.1 mph - 0.00 in Snow Light Snow
6:07 AM 15.8 °F 6.1 °F 10.4 °F 79% 30.26 in 4.0 mi NW 6.9 mph - 0.00 in Snow Light Snow
6:16 AM 15.8 °F 3.4 °F 10.4 °F 79% 30.26 in 6.0 mi NW 10.4 mph 18.4 mph 0.00 in Snow Light Snow
6:29 AM 15.8 °F 3.4 °F 10.4 °F 79% 30.27 in 8.0 mi NW 10.4 mph - 0.00 in   Overcast
6:52 AM 14.0 °F 1.2 °F 10.0 °F 84% 30.40 in 9.0 mi NW 10.4 mph - 0.00 in   Overcast
7:52 AM 14.0 °F 2.0 °F 9.0 °F 80% 30.41 in - NW 9.2 mph - 0.00 in Snow Light Snow
8:52 AM 15.1 °F 1.1 °F 10.0 °F 80% 30.42 in 5.0 mi NW 12.7 mph - 0.00 in   Haze
9:52 AM 17.1 °F 2.5 °F 10.0 °F 74% 30.43 in - NW 15.0 mph - 0.00 in Snow Light Snow
10:07 AM 17.6 °F 2.7 °F 10.4 °F 73% 30.31 in 1.5 mi NW 16.1 mph - 0.00 in Snow Light Snow
10:25 AM 17.6 °F 3.7 °F 12.2 °F 79% 30.31 in 3.0 mi NNW 13.8 mph - 0.00 in Snow Light Snow
10:52 AM 18.0 °F 3.1 °F 10.9 °F 74% 30.44 in 3.0 mi NNW 16.1 mph - 0.00 in Snow Light Snow
11:52 AM 19.9 °F 7.9 °F 10.9 °F 68% 30.43 in 10.0 mi NNW 11.5 mph 23.0 mph 0.00 in   Overcast
12:52 PM 19.9 °F 7.3 °F 12.0 °F 71% 30.44 in - NNW 12.7 mph - 0.00 in Snow Light Snow
1:02 PM 19.4 °F 6.6 °F 12.2 °F 74% 30.31 in - NNW 12.7 mph - 0.00 in Snow Light Snow
1:23 PM 21.2 °F 9.5 °F 12.2 °F 68% 30.31 in 6.0 mi NNW 11.5 mph - 0.00 in Snow Light Snow
1:52 PM 21.9 °F 9.8 °F 12.0 °F 66% 30.43 in 9.0 mi NNW 12.7 mph - 0.00 in   Overcast
2:52 PM 24.1 °F 14.4 °F 12.9 °F 62% 30.41 in 10.0 mi NNW 9.2 mph - N/A   Overcast
3:39 PM 26.6 °F 16.2 °F 12.2 °F 55% 30.28 in 10.0 mi NW 11.5 mph - N/A   Overcast
3:52 PM 26.1 °F 15.6 °F 12.0 °F 55% 30.39 in 10.0 mi NNW 11.5 mph - N/A   Mostly Cloudy
4:52 PM 28.9 °F 20.4 °F 12.0 °F 49% 30.38 in 10.0 mi NNW 9.2 mph - N/A   Clear
5:52 PM 30.0 °F 19.5 °F 10.9 °F 45% 30.38 in 10.0 mi North 13.8 mph - N/A   Clear
6:52 PM 30.0 °F 22.4 °F 10.9 °F 45% 30.38 in - NW 8.1 mph - N/A   Clear
7:52 PM 27.0 °F 21.6 °F 12.0 °F 53% 30.39 in 10.0 mi NW 4.6 mph - N/A   Clear
8:52 PM 21.9 °F - 12.9 °F 68% 30.39 in 10.0 mi Calm Calm - N/A   Clear
9:52 PM 21.0 °F 13.4 °F 12.0 °F 68% 30.40 in - ENE 5.8 mph - N/A   Clear
10:52 PM 19.9 °F 13.4 °F 12.0 °F 71% 30.41 in - East 4.6 mph - N/A   Clear
11:52 PM 18.0 °F - 12.0 °F 78% 30.41 in - Calm Calm - N/A   Clear